COSMOS 2513

Last updated on Thu Oct 30 2025 00:02:50 GMT+0000 (Coordinated Universal Time)

1 41121U 15075A 25302.55835150 -.00000127 00000+0 00000+0 0 9990 2 41121 0.0549 90.2666 0002990 150.8986 78.2576 1.00264669 36238
UTC large
Height (km)
Speed (km/s)
/
Latitude / Longitude
Inclination (degrees)
Orbital Period (minutes)
Azimuth
Elevation
Range (km)
Doppler Factor

Next 0 passes for location: London (51.5072 / 0.1276)

Sorry there are no passes over London.